This demonstration page uses our WeatherBlox Daily Observations layout. Learn more.

Left ArrowRight Arrow

39.01783, -85.05884

Hourly Observations for September 27, 2020

Temp ( °F °C ) Dew Point ( °F °C ) Humidity (%) Winds ( mph kmh ) Pressure ( in mb ) Visibility ( mi km ) Precip ( " mm )
12:52 am 00:52 Clear 63 17.2 60 15.6 90 90 S 8 13 29.91 1013 10 16 0.00 0.00
1:52 am 01:52 Clear 61 16.1 59 15 93 93 S 5 7 29.90 1012 10 16 0.00 0.00
2:52 am 02:52 Clear 61 16.1 58 14.4 90 90 S 6 9 29.89 1012 10 16 0.00 0.00
3:52 am 03:52 Clear 60 15.6 58 14.4 93 93 S 7 11 29.89 1012 10 16 0.00 0.00
4:45 am 04:45 Mostly Cloudy 60 15.6 58 14.4 93 93 S 7 11 29.90 1013 9 14 0.00 0.00
4:52 am 04:52 Mostly Cloudy 61 16.1 59 15 93 93 S 6 9 29.89 1012 10 16 0.00 0.00
5:29 am 05:29 Mostly Clear 59 15 57 13.9 93 93 S 5 7 29.90 1013 9 14 0.00 0.00
5:52 am 05:52 Mostly Clear 58 14.4 56 13.3 93 93 S 6 9 29.88 1012 9 14 0.00 0.00
6:52 am 06:52 Clear 58 14.4 56 13.3 93 93 S 7 11 29.89 1012 10 16 0.00 0.00
7:52 am 07:52 Mostly Sunny 59 15 57 13.9 93 93 S 7 11 29.90 1013 10 16 0.00 0.00
8:52 am 08:52 Mostly Sunny 62 16.7 60 15.6 93 93 S 8 13 29.90 1013 10 16 0.00 0.00
9:52 am 09:52 Partly Cloudy 66 18.9 60 15.6 81 81 SSW 9 15 29.91 1013 10 16 0.00 0.00
10:52 am 10:52 Cloudy 67 19.4 61 16.1 81 81 SSW 12 19 29.91 1013 10 16 0.00 0.00
11:52 am 11:52 Mostly Cloudy 70 21.1 61 16.1 73 73 SW 13 20 29.89 1012 10 16 0.00 0.00
12:40 pm 12:40 Mostly Cloudy 72 22.2 59 15 64 64 SSW 12 19 29.87 1012 10 16 0.00 0.00
12:52 pm 12:52 Cloudy 72 22.2 59 15 64 64 SW 10 17 29.87 1012 10 16 0.00 0.00
1:31 pm 13:31 Mostly Cloudy 73 22.8 60 15.6 64 64 SSW 10 17 29.85 1011 10 16 0.00 0.00
1:52 pm 13:52 Mostly Cloudy 74 23.3 60 15.6 62 62 SSW 13 20 29.86 1011 10 16 0.00 0.00
2:52 pm 14:52 Mostly Cloudy 77 25 59 15 54 54 SSW 13 20 29.83 1010 10 16 0.00 0.00
3:52 pm 15:52 Mostly Cloudy 78 25.6 58 14.4 50 50 SSW 10 17 29.80 1009 10 16 0.00 0.00
4:52 pm 16:52 Mostly Cloudy 77 25 58 14.4 52 52 SSW 10 17 29.79 1009 10 16 0.00 0.00
5:52 pm 17:52 Partly Cloudy 78 25.6 59 15 52 52 SSW 12 19 29.79 1009 10 16 0.00 0.00
6:52 pm 18:52 Partly Cloudy 74 23.3 60 15.6 62 62 SSW 6 9 29.80 1009 10 16 0.00 0.00
7:52 pm 19:52 Partly Cloudy 70 21.1 59 15 68 68 S 5 7 29.78 1009 10 16 0.00 0.00
8:52 pm 20:52 Partly Cloudy 69 20.6 60 15.6 73 73 SSW 5 7 29.80 1009 10 16 0.00 0.00
9:52 pm 21:52 Partly Cloudy 66 18.9 60 15.6 81 81 SSE 5 7 29.79 1009 10 16 0.00 0.00
10:52 pm 22:52 Partly Cloudy 65 18.3 59 15 81 81 S 6 9 29.79 1009 10 16 0.00 0.00
11:52 pm 23:52 Partly Cloudy 64 17.8 59 15 84 84 S 6 9 29.78 1009 10 16 0.00 0.00

Powered by AerisWeather